Year,Month,Day,Hour,Minute,Value (Times are PST for temperature in C)
2016,08,25,00,00,19.40
2016,08,25,00,01,19.30
2016,08,25,00,02,19.30
2016,08,25,00,03,19.30
2016,08,25,00,04,19.30
2016,08,25,00,05,19.30
2016,08,25,00,06,19.30
2016,08,25,00,07,19.20
2016,08,25,00,08,19.20
2016,08,25,00,09,19.20
2016,08,25,00,10,19.20
2016,08,25,00,11,19.20
2016,08,25,00,12,19.10
2016,08,25,00,13,19.10
2016,08,25,00,14,19.10
2016,08,25,00,15,19.10
2016,08,25,00,16,19.10
2016,08,25,00,17,19.10
2016,08,25,00,18,19.10
2016,08,25,00,19,19.10
2016,08,25,00,20,19.10
2016,08,25,00,21,19.10
2016,08,25,00,22,19.10
2016,08,25,00,23,19.10
2016,08,25,00,24,19.10
2016,08,25,00,25,19.10
2016,08,25,00,26,19.10
2016,08,25,00,27,19.00
2016,08,25,00,28,18.90
2016,08,25,00,29,18.90
2016,08,25,00,30,18.90
2016,08,25,00,31,18.90
2016,08,25,00,32,18.90
2016,08,25,00,33,18.90
2016,08,25,00,34,18.90
2016,08,25,00,35,18.90
2016,08,25,00,36,18.90
2016,08,25,00,37,18.90
2016,08,25,00,38,18.80
2016,08,25,00,39,18.80
2016,08,25,00,40,18.80
2016,08,25,00,41,18.80
2016,08,25,00,42,18.70
2016,08,25,00,43,18.70
2016,08,25,00,44,18.70
2016,08,25,00,45,18.60
2016,08,25,00,46,18.60
2016,08,25,00,47,18.60
2016,08,25,00,48,18.50
2016,08,25,00,49,18.50
2016,08,25,00,50,18.50
2016,08,25,00,51,18.50
2016,08,25,00,52,18.40
2016,08,25,00,53,18.40
2016,08,25,00,54,18.40
2016,08,25,00,55,18.40
2016,08,25,00,56,18.40
2016,08,25,00,57,18.40
2016,08,25,00,58,18.40
2016,08,25,00,59,18.40
2016,08,25,01,00,18.40
2016,08,25,01,01,18.40
2016,08,25,01,02,18.40
2016,08,25,01,03,18.40
2016,08,25,01,04,18.40
2016,08,25,01,05,18.40
2016,08,25,01,06,18.40
2016,08,25,01,07,18.40
2016,08,25,01,08,18.40
2016,08,25,01,09,18.40
2016,08,25,01,10,18.40
2016,08,25,01,11,18.40
2016,08,25,01,12,18.40
2016,08,25,01,13,18.40
2016,08,25,01,14,18.40
2016,08,25,01,15,18.40
2016,08,25,01,16,18.30
2016,08,25,01,17,18.30
2016,08,25,01,18,18.30
2016,08,25,01,19,18.20
2016,08,25,01,20,18.20
2016,08,25,01,21,18.20
2016,08,25,01,22,18.20
2016,08,25,01,23,18.20
2016,08,25,01,24,18.10
2016,08,25,01,25,18.10
2016,08,25,01,26,18.00
2016,08,25,01,27,17.90
2016,08,25,01,28,17.90
2016,08,25,01,29,17.90
2016,08,25,01,30,17.90
2016,08,25,01,31,17.80
2016,08,25,01,32,17.80
2016,08,25,01,33,17.80
2016,08,25,01,34,17.80
2016,08,25,01,35,17.70
2016,08,25,01,36,17.70
2016,08,25,01,37,17.70
2016,08,25,01,38,17.70
2016,08,25,01,39,17.60
2016,08,25,01,40,17.60
2016,08,25,01,41,17.60
2016,08,25,01,42,17.60
2016,08,25,01,43,17.50
2016,08,25,01,44,17.50
2016,08,25,01,45,17.50
2016,08,25,01,46,17.50
2016,08,25,01,47,17.40
2016,08,25,01,48,17.40
2016,08,25,01,49,17.40
2016,08,25,01,50,17.30
2016,08,25,01,51,17.30
2016,08,25,01,52,17.30
2016,08,25,01,53,17.30
2016,08,25,01,54,17.30
2016,08,25,01,55,17.30
2016,08,25,01,56,17.30
2016,08,25,01,57,17.30
2016,08,25,01,58,17.30
2016,08,25,01,59,17.20
2016,08,25,02,00,17.20
2016,08,25,02,01,17.20
2016,08,25,02,02,17.20
2016,08,25,02,03,17.30
2016,08,25,02,04,17.30
2016,08,25,02,05,17.30
2016,08,25,02,06,17.30
2016,08,25,02,07,17.30
2016,08,25,02,08,17.30
2016,08,25,02,09,17.30
2016,08,25,02,10,17.30
2016,08,25,02,11,17.30
2016,08,25,02,12,17.30
2016,08,25,02,13,17.40
2016,08,25,02,14,17.40
2016,08,25,02,15,17.40
2016,08,25,02,16,17.40
2016,08,25,02,17,17.50
2016,08,25,02,18,17.50
2016,08,25,02,19,17.50
2016,08,25,02,20,17.50
2016,08,25,02,21,17.60
2016,08,25,02,22,17.60
2016,08,25,02,23,17.60
2016,08,25,02,24,17.60
2016,08,25,02,25,17.70
2016,08,25,02,26,17.70
2016,08,25,02,27,17.70
2016,08,25,02,28,17.70
2016,08,25,02,29,17.70
2016,08,25,02,30,17.80
2016,08,25,02,31,17.80
2016,08,25,02,32,17.80
2016,08,25,02,33,17.90
2016,08,25,02,34,17.90
2016,08,25,02,35,17.90
2016,08,25,02,36,18.00
2016,08,25,02,37,18.10
2016,08,25,02,38,18.10
2016,08,25,02,39,18.20
2016,08,25,02,40,18.20
2016,08,25,02,41,18.20
2016,08,25,02,42,18.20
2016,08,25,02,43,18.20
2016,08,25,02,44,18.30
2016,08,25,02,45,18.30
2016,08,25,02,46,18.30
2016,08,25,02,47,18.40
2016,08,25,02,48,18.40
2016,08,25,02,49,18.40
2016,08,25,02,50,18.40
2016,08,25,02,51,18.50
2016,08,25,02,52,18.50
2016,08,25,02,53,18.50
2016,08,25,02,54,18.50
2016,08,25,02,55,18.50
2016,08,25,02,56,18.50
2016,08,25,02,57,18.50
2016,08,25,02,58,18.50
2016,08,25,02,59,18.50
2016,08,25,03,00,18.50
2016,08,25,03,01,18.50
2016,08,25,03,02,18.50
2016,08,25,03,03,18.50
2016,08,25,03,04,18.50
2016,08,25,03,05,18.50
2016,08,25,03,06,18.50
2016,08,25,03,07,18.40
2016,08,25,03,08,18.40
2016,08,25,03,09,18.40
2016,08,25,03,10,18.40
2016,08,25,03,11,18.40
2016,08,25,03,12,18.30
2016,08,25,03,13,18.30
2016,08,25,03,14,18.30
2016,08,25,03,15,18.30
2016,08,25,03,16,18.30
2016,08,25,03,17,18.20
2016,08,25,03,18,18.20
2016,08,25,03,19,18.20
2016,08,25,03,20,18.20
2016,08,25,03,21,18.20
2016,08,25,03,22,18.20
2016,08,25,03,23,18.20
2016,08,25,03,24,18.20
2016,08,25,03,25,18.20
2016,08,25,03,26,18.20
2016,08,25,03,27,18.20
2016,08,25,03,28,18.20
2016,08,25,03,29,18.20
2016,08,25,03,30,18.20
2016,08,25,03,31,18.20
2016,08,25,03,32,18.20
2016,08,25,03,33,18.20
2016,08,25,03,34,18.30
2016,08,25,03,35,18.30
2016,08,25,03,36,18.30
2016,08,25,03,37,18.30
2016,08,25,03,38,18.30
2016,08,25,03,39,18.30
2016,08,25,03,40,18.30
2016,08,25,03,41,18.30
2016,08,25,03,42,18.30
2016,08,25,03,43,18.20
2016,08,25,03,44,18.20
2016,08,25,03,45,18.20
2016,08,25,03,46,18.20
2016,08,25,03,47,18.20
2016,08,25,03,48,18.10
2016,08,25,03,49,18.10
2016,08,25,03,50,18.00
2016,08,25,03,51,17.90
2016,08,25,03,52,17.90
2016,08,25,03,53,17.90
2016,08,25,03,54,17.80
2016,08,25,03,55,17.80
2016,08,25,03,56,17.80
2016,08,25,03,57,17.70
2016,08,25,03,58,17.70
2016,08,25,03,59,17.70
2016,08,25,04,00,17.70
2016,08,25,04,01,17.70
2016,08,25,04,02,17.70
2016,08,25,04,03,17.70
2016,08,25,04,04,17.80
2016,08,25,04,05,17.80
2016,08,25,04,06,17.80
2016,08,25,04,07,17.90
2016,08,25,04,08,17.90
2016,08,25,04,09,17.90
2016,08,25,04,10,17.90
2016,08,25,04,11,17.90
2016,08,25,04,12,17.90
2016,08,25,04,13,18.00
2016,08,25,04,14,18.10
2016,08,25,04,15,18.10
2016,08,25,04,16,18.10
2016,08,25,04,17,18.00
2016,08,25,04,18,17.90
2016,08,25,04,19,17.90
2016,08,25,04,20,17.90
2016,08,25,04,21,17.90
2016,08,25,04,22,17.90
2016,08,25,04,23,17.80
2016,08,25,04,24,17.80
2016,08,25,04,25,17.80
2016,08,25,04,26,17.70
2016,08,25,04,27,17.70
2016,08,25,04,28,17.70
2016,08,25,04,29,17.60
2016,08,25,04,30,17.60
2016,08,25,04,31,17.50
2016,08,25,04,32,17.50
2016,08,25,04,33,17.40
2016,08,25,04,34,17.40
2016,08,25,04,35,17.40
2016,08,25,04,36,17.30
2016,08,25,04,37,17.30
2016,08,25,04,38,17.30
2016,08,25,04,39,17.30
2016,08,25,04,40,17.30
2016,08,25,04,41,17.30
2016,08,25,04,42,17.30
2016,08,25,04,43,17.30
2016,08,25,04,44,17.20
2016,08,25,04,45,17.20
2016,08,25,04,46,17.20
2016,08,25,04,47,17.20
2016,08,25,04,48,17.10
2016,08,25,04,49,17.10
2016,08,25,04,50,17.00
2016,08,25,04,51,17.00
2016,08,25,04,52,17.00
2016,08,25,04,53,16.90
2016,08,25,04,54,16.90
2016,08,25,04,55,16.90
2016,08,25,04,56,16.90
2016,08,25,04,57,16.80
2016,08,25,04,58,16.80
2016,08,25,04,59,16.80
2016,08,25,05,00,16.80
2016,08,25,05,01,16.80
2016,08,25,05,02,16.80
2016,08,25,05,03,16.80
2016,08,25,05,04,16.80
2016,08,25,05,05,16.80
2016,08,25,05,06,16.80
2016,08,25,05,07,16.80
2016,08,25,05,08,16.80
2016,08,25,05,09,16.80
2016,08,25,05,10,16.80
2016,08,25,05,11,16.80
2016,08,25,05,12,16.80
2016,08,25,05,13,16.70
2016,08,25,05,14,16.70
2016,08,25,05,15,16.70
2016,08,25,05,16,16.70
2016,08,25,05,17,16.70
2016,08,25,05,18,16.60
2016,08,25,05,19,16.60
2016,08,25,05,20,16.50
2016,08,25,05,21,16.40
2016,08,25,05,22,16.40
2016,08,25,05,23,16.40
2016,08,25,05,24,16.30
2016,08,25,05,25,16.30
2016,08,25,05,26,16.20
2016,08,25,05,27,16.20
2016,08,25,05,28,16.10
2016,08,25,05,29,16.10
2016,08,25,05,30,16.10
2016,08,25,05,31,16.10
2016,08,25,05,32,16.10
2016,08,25,05,33,15.90
2016,08,25,05,34,15.90
2016,08,25,05,35,15.90
2016,08,25,05,36,15.90
2016,08,25,05,37,15.80
2016,08,25,05,38,15.80
2016,08,25,05,39,15.80
2016,08,25,05,40,15.80
2016,08,25,05,41,15.80
2016,08,25,05,42,15.80
2016,08,25,05,43,15.80
2016,08,25,05,44,15.80
2016,08,25,05,45,15.80
2016,08,25,05,46,15.80
2016,08,25,05,47,15.80
2016,08,25,05,48,15.80
2016,08,25,05,49,15.80
2016,08,25,05,50,15.70
2016,08,25,05,51,15.70
2016,08,25,05,52,15.70
2016,08,25,05,53,15.80
2016,08,25,05,54,15.80
2016,08,25,05,55,15.80
2016,08,25,05,56,15.80
2016,08,25,05,57,15.80
2016,08,25,05,58,15.80
2016,08,25,05,59,15.80
2016,08,25,06,00,15.80
2016,08,25,06,01,15.80
2016,08,25,06,02,15.80
2016,08,25,06,03,15.80
2016,08,25,06,04,15.80
2016,08,25,06,05,15.80
2016,08,25,06,06,15.80
2016,08,25,06,07,15.80
2016,08,25,06,08,15.80
2016,08,25,06,09,15.80
2016,08,25,06,10,15.80
2016,08,25,06,11,15.80
2016,08,25,06,12,15.80
2016,08,25,06,13,15.80
2016,08,25,06,14,15.80
2016,08,25,06,15,15.80
2016,08,25,06,16,15.80
2016,08,25,06,17,15.80
2016,08,25,06,18,15.80
2016,08,25,06,19,15.80
2016,08,25,06,20,15.80
2016,08,25,06,21,15.70
2016,08,25,06,22,15.70
2016,08,25,06,23,15.70
2016,08,25,06,24,15.70
2016,08,25,06,25,15.60
2016,08,25,06,26,15.60
2016,08,25,06,27,15.60
2016,08,25,06,28,15.60
2016,08,25,06,29,15.50
2016,08,25,06,30,15.50
2016,08,25,06,31,15.50
2016,08,25,06,32,15.50
2016,08,25,06,33,15.50
2016,08,25,06,34,15.50
2016,08,25,06,35,15.50
2016,08,25,06,36,15.50
2016,08,25,06,37,15.50
2016,08,25,06,38,15.50
2016,08,25,06,39,15.40
2016,08,25,06,40,15.40
2016,08,25,06,41,15.50
2016,08,25,06,42,15.50
2016,08,25,06,43,15.60
2016,08,25,06,44,15.60
2016,08,25,06,45,15.70
2016,08,25,06,46,15.70
2016,08,25,06,47,15.80
2016,08,25,06,48,15.80
2016,08,25,06,49,15.80
2016,08,25,06,50,15.80
2016,08,25,06,51,15.90
2016,08,25,06,52,15.90
2016,08,25,06,53,16.00
2016,08,25,06,54,16.10
2016,08,25,06,55,16.10
2016,08,25,06,56,16.10
2016,08,25,06,57,16.20
2016,08,25,06,58,16.20
2016,08,25,06,59,16.20
2016,08,25,07,00,16.30
2016,08,25,07,01,16.30
2016,08,25,07,02,16.40
2016,08,25,07,03,16.40
2016,08,25,07,04,16.50
2016,08,25,07,05,16.60
2016,08,25,07,06,16.60
2016,08,25,07,07,16.70
2016,08,25,07,08,16.70
2016,08,25,07,09,16.80
2016,08,25,07,10,16.90
2016,08,25,07,11,16.90
2016,08,25,07,12,16.90
2016,08,25,07,13,17.00
2016,08,25,07,14,17.00
2016,08,25,07,15,17.10
2016,08,25,07,16,17.20
2016,08,25,07,17,17.20
2016,08,25,07,18,17.30
2016,08,25,07,19,17.30
2016,08,25,07,20,17.30
2016,08,25,07,21,17.30
2016,08,25,07,22,17.40
2016,08,25,07,23,17.50
2016,08,25,07,24,17.60
2016,08,25,07,25,17.70
2016,08,25,07,26,17.80
2016,08,25,07,27,17.90
2016,08,25,07,28,17.90
2016,08,25,07,29,18.00
2016,08,25,07,30,18.10
2016,08,25,07,31,18.10
2016,08,25,07,32,18.10
2016,08,25,07,33,18.10
2016,08,25,07,34,18.10
2016,08,25,07,35,18.10
2016,08,25,07,36,18.20
2016,08,25,07,37,18.20
2016,08,25,07,38,18.30
2016,08,25,07,39,18.30
2016,08,25,07,40,18.40
2016,08,25,07,41,18.50
2016,08,25,07,42,18.60
2016,08,25,07,43,18.70
2016,08,25,07,44,18.70
2016,08,25,07,45,18.80
2016,08,25,07,46,18.80
2016,08,25,07,47,18.90
2016,08,25,07,48,18.90
2016,08,25,07,49,19.00
2016,08,25,07,50,19.10
2016,08,25,07,51,19.10
2016,08,25,07,52,19.10
2016,08,25,07,53,19.10
2016,08,25,07,54,19.20
2016,08,25,07,55,19.30
2016,08,25,07,56,19.40
2016,08,25,07,57,19.50
2016,08,25,07,58,19.60
2016,08,25,07,59,19.60
2016,08,25,08,00,19.60
2016,08,25,08,01,19.60
2016,08,25,08,02,19.50
2016,08,25,08,03,19.50
2016,08,25,08,04,19.40
2016,08,25,08,05,19.40
2016,08,25,08,06,19.40
2016,08,25,08,07,19.50
2016,08,25,08,08,19.60
2016,08,25,08,09,19.60
2016,08,25,08,10,19.70
2016,08,25,08,11,19.70
2016,08,25,08,12,19.80
2016,08,25,08,13,19.80
2016,08,25,08,14,19.80
2016,08,25,08,15,19.90
2016,08,25,08,16,20.00
2016,08,25,08,17,20.10
2016,08,25,08,18,20.20
2016,08,25,08,19,20.30
2016,08,25,08,20,20.40
2016,08,25,08,21,20.60
2016,08,25,08,22,20.60
2016,08,25,08,23,20.70
2016,08,25,08,24,20.80
2016,08,25,08,25,21.00
2016,08,25,08,26,21.10
2016,08,25,08,27,21.30
2016,08,25,08,28,21.30
2016,08,25,08,29,21.40
2016,08,25,08,30,21.50
2016,08,25,08,31,21.60
2016,08,25,08,32,21.60
2016,08,25,08,33,21.70
2016,08,25,08,34,21.80
2016,08,25,08,35,21.90
2016,08,25,08,36,22.00
2016,08,25,08,37,22.10
2016,08,25,08,38,22.20
2016,08,25,08,39,22.20
2016,08,25,08,40,22.20
2016,08,25,08,41,22.30
2016,08,25,08,42,22.30
2016,08,25,08,43,22.30
2016,08,25,08,44,22.40
2016,08,25,08,45,22.50
2016,08,25,08,46,22.60
2016,08,25,08,47,22.60
2016,08,25,08,48,22.70
2016,08,25,08,49,22.70
2016,08,25,08,50,22.70
2016,08,25,08,51,22.70
2016,08,25,08,52,22.70
2016,08,25,08,53,22.80
2016,08,25,08,54,22.80
2016,08,25,08,55,22.90
2016,08,25,08,56,22.90
2016,08,25,08,57,22.90
2016,08,25,08,58,23.10
2016,08,25,08,59,23.10
2016,08,25,09,00,23.20
2016,08,25,09,01,23.30
2016,08,25,09,02,23.30
2016,08,25,09,03,23.30
2016,08,25,09,04,23.40
2016,08,25,09,05,23.40
2016,08,25,09,06,23.50
2016,08,25,09,07,23.60
2016,08,25,09,08,23.60
2016,08,25,09,09,23.70
2016,08,25,09,10,23.70
2016,08,25,09,11,23.80
2016,08,25,09,12,23.80
2016,08,25,09,13,23.90
2016,08,25,09,14,23.90
2016,08,25,09,15,23.90
2016,08,25,09,16,23.90
2016,08,25,09,17,24.10
2016,08,25,09,18,24.00
2016,08,25,09,19,23.90
2016,08,25,09,20,23.90
2016,08,25,09,21,23.90
2016,08,25,09,22,23.90
2016,08,25,09,23,23.90
2016,08,25,09,24,23.90
2016,08,25,09,25,24.00
2016,08,25,09,26,24.10
2016,08,25,09,27,24.10
2016,08,25,09,28,24.10
2016,08,25,09,29,24.10
2016,08,25,09,30,24.10
2016,08,25,09,31,24.10
2016,08,25,09,32,24.10
2016,08,25,09,33,24.10
2016,08,25,09,34,24.10
2016,08,25,09,35,24.10
2016,08,25,09,36,24.10
2016,08,25,09,37,24.10
2016,08,25,09,38,24.10
2016,08,25,09,39,24.10
2016,08,25,09,40,24.10
2016,08,25,09,41,24.10
2016,08,25,09,42,24.10
2016,08,25,09,43,24.10
2016,08,25,09,44,24.10
2016,08,25,09,45,24.10
2016,08,25,09,46,24.10
2016,08,25,09,47,24.10
2016,08,25,09,48,24.10
2016,08,25,09,49,24.10
2016,08,25,09,50,24.20
2016,08,25,09,51,24.20
2016,08,25,09,52,24.20
2016,08,25,09,53,24.10
2016,08,25,09,54,24.20
2016,08,25,09,55,24.20
2016,08,25,09,56,24.30
2016,08,25,09,57,24.30
2016,08,25,09,58,24.30
2016,08,25,09,59,24.30
2016,08,25,10,00,24.30
2016,08,25,10,01,24.30
2016,08,25,10,02,24.30
2016,08,25,10,03,24.30
2016,08,25,10,04,24.30
2016,08,25,10,05,24.30
2016,08,25,10,06,24.40
2016,08,25,10,07,24.40
2016,08,25,10,08,24.40
2016,08,25,10,09,24.50
2016,08,25,10,10,24.60
2016,08,25,10,11,24.60
2016,08,25,10,12,24.70
2016,08,25,10,13,24.70
2016,08,25,10,14,24.70
2016,08,25,10,15,24.70
2016,08,25,10,16,24.70
2016,08,25,10,17,24.70
2016,08,25,10,18,24.70
2016,08,25,10,19,24.70
2016,08,25,10,20,24.70
2016,08,25,10,21,24.70
2016,08,25,10,22,24.70
2016,08,25,10,23,24.70
2016,08,25,10,24,24.70
2016,08,25,10,25,24.70
2016,08,25,10,26,24.70
2016,08,25,10,27,24.70
2016,08,25,10,28,24.70
2016,08,25,10,29,24.70
2016,08,25,10,30,24.70
2016,08,25,10,31,24.70
2016,08,25,10,32,24.70
2016,08,25,10,33,24.80
2016,08,25,10,34,24.80
2016,08,25,10,35,24.80
2016,08,25,10,36,24.80
2016,08,25,10,37,24.90
2016,08,25,10,38,24.90
2016,08,25,10,39,24.90
2016,08,25,10,40,25.00
2016,08,25,10,41,25.00
2016,08,25,10,42,25.00
2016,08,25,10,43,25.00
2016,08,25,10,44,25.00
2016,08,25,10,45,25.00
2016,08,25,10,46,25.10
2016,08,25,10,47,25.10
2016,08,25,10,48,25.10
2016,08,25,10,49,25.10
2016,08,25,10,50,25.10
2016,08,25,10,51,25.10
2016,08,25,10,52,25.20
2016,08,25,10,53,25.20
2016,08,25,10,54,25.20
2016,08,25,10,55,25.20
2016,08,25,10,56,25.20
2016,08,25,10,57,25.20
2016,08,25,10,58,25.30
2016,08,25,10,59,25.30
2016,08,25,11,00,25.40
2016,08,25,11,01,25.40
2016,08,25,11,02,25.40
2016,08,25,11,03,25.50
2016,08,25,11,04,25.50
2016,08,25,11,05,25.50
2016,08,25,11,06,25.50
2016,08,25,11,07,25.60
2016,08,25,11,08,25.60
2016,08,25,11,09,25.60
2016,08,25,11,10,25.70
2016,08,25,11,11,25.80
2016,08,25,11,12,25.80
2016,08,25,11,13,25.80
2016,08,25,11,14,25.80
2016,08,25,11,15,25.80
2016,08,25,11,16,25.80
2016,08,25,11,17,25.80
2016,08,25,11,18,25.80
2016,08,25,11,19,25.80
2016,08,25,11,20,25.80
2016,08,25,11,21,25.90
2016,08,25,11,22,25.90
2016,08,25,11,23,25.90
2016,08,25,11,24,25.90
2016,08,25,11,25,26.00
2016,08,25,11,26,26.00
2016,08,25,11,27,26.00
2016,08,25,11,28,26.00
2016,08,25,11,29,26.10
2016,08,25,11,30,26.10
2016,08,25,11,31,26.10
2016,08,25,11,32,26.20
2016,08,25,11,33,26.20
2016,08,25,11,34,26.20
2016,08,25,11,35,26.30
2016,08,25,11,36,26.30
2016,08,25,11,37,26.40
2016,08,25,11,38,26.40
2016,08,25,11,39,26.40
2016,08,25,11,40,26.50
2016,08,25,11,41,26.60
2016,08,25,11,42,26.60
2016,08,25,11,43,26.60
2016,08,25,11,44,26.60
2016,08,25,11,45,26.60
2016,08,25,11,46,26.60
2016,08,25,11,47,26.60
2016,08,25,11,48,26.60
2016,08,25,11,49,26.60
2016,08,25,11,50,26.70
2016,08,25,11,51,26.80
2016,08,25,11,52,26.80
2016,08,25,11,53,26.80
2016,08,25,11,54,26.80
2016,08,25,11,55,26.90
2016,08,25,11,56,26.90
2016,08,25,11,57,27.00
2016,08,25,11,58,27.10
2016,08,25,11,59,27.10
2016,08,25,12,00,27.10
2016,08,25,12,01,27.10
2016,08,25,12,02,27.10
2016,08,25,12,03,27.10
2016,08,25,12,04,27.10
2016,08,25,12,05,27.10
2016,08,25,12,06,27.20
2016,08,25,12,07,27.10
2016,08,25,12,08,27.10
2016,08,25,12,09,27.10
2016,08,25,12,10,27.10
2016,08,25,12,11,27.10
2016,08,25,12,12,27.10
2016,08,25,12,13,27.10
2016,08,25,12,14,27.10
2016,08,25,12,15,27.20
2016,08,25,12,16,27.10
2016,08,25,12,17,27.10
2016,08,25,12,18,27.10
2016,08,25,12,19,27.10
2016,08,25,12,20,27.10
2016,08,25,12,21,27.10
2016,08,25,12,22,27.20
2016,08,25,12,23,27.20
2016,08,25,12,24,27.30
2016,08,25,12,25,27.30
2016,08,25,12,26,27.40
2016,08,25,12,27,27.50
2016,08,25,12,28,27.60
2016,08,25,12,29,27.70
2016,08,25,12,30,27.80
2016,08,25,12,31,27.90
2016,08,25,12,32,28.00
2016,08,25,12,33,28.10
2016,08,25,12,34,28.10
2016,08,25,12,35,28.10
2016,08,25,12,36,28.20
2016,08,25,12,37,28.30
2016,08,25,12,38,28.30
2016,08,25,12,39,28.40
2016,08,25,12,40,28.40
2016,08,25,12,41,28.50
2016,08,25,12,42,28.60
2016,08,25,12,43,28.50
2016,08,25,12,44,28.40
2016,08,25,12,45,28.40
2016,08,25,12,46,28.40
2016,08,25,12,47,28.40
2016,08,25,12,48,28.40
2016,08,25,12,49,28.40
2016,08,25,12,50,28.40
2016,08,25,12,51,28.40
2016,08,25,12,52,28.40
2016,08,25,12,53,28.30
2016,08,25,12,54,28.20
2016,08,25,12,55,28.20
2016,08,25,12,56,28.10
2016,08,25,12,57,28.00
2016,08,25,12,58,28.00
2016,08,25,12,59,28.00
2016,08,25,13,00,28.00
2016,08,25,13,01,28.00
2016,08,25,13,02,27.90
2016,08,25,13,03,27.90
2016,08,25,13,04,27.90
2016,08,25,13,05,27.90
2016,08,25,13,06,27.90
2016,08,25,13,07,27.90
2016,08,25,13,08,27.90
2016,08,25,13,09,27.90
2016,08,25,13,10,28.00
2016,08,25,13,11,28.00
2016,08,25,13,12,28.00
2016,08,25,13,13,28.00
2016,08,25,13,14,28.00
2016,08,25,13,15,28.00
2016,08,25,13,16,28.00
2016,08,25,13,17,28.00
2016,08,25,13,18,28.00
2016,08,25,13,19,28.00
2016,08,25,13,20,28.00
2016,08,25,13,21,27.90
2016,08,25,13,22,27.90
2016,08,25,13,23,27.90
2016,08,25,13,24,27.90
2016,08,25,13,25,27.90
2016,08,25,13,26,27.90
2016,08,25,13,27,27.90
2016,08,25,13,28,27.90
2016,08,25,13,29,27.90
2016,08,25,13,30,27.90
2016,08,25,13,31,28.00
2016,08,25,13,32,28.00
2016,08,25,13,33,28.00
2016,08,25,13,34,28.00
2016,08,25,13,35,28.00
2016,08,25,13,36,28.00
2016,08,25,13,37,28.10
2016,08,25,13,38,28.10
2016,08,25,13,39,28.10
2016,08,25,13,40,28.00
2016,08,25,13,41,28.00
2016,08,25,13,42,28.00
2016,08,25,13,43,28.00
2016,08,25,13,44,28.00
2016,08,25,13,45,28.00
2016,08,25,13,46,28.00
2016,08,25,13,47,28.00
2016,08,25,13,48,28.00
2016,08,25,13,49,27.90
2016,08,25,13,50,27.90
2016,08,25,13,51,27.90
2016,08,25,13,52,27.90
2016,08,25,13,53,27.90
2016,08,25,13,54,27.90
2016,08,25,13,55,28.00
2016,08,25,13,56,28.00
2016,08,25,13,57,28.10
2016,08,25,13,58,28.10
2016,08,25,13,59,28.10
2016,08,25,14,00,28.10
2016,08,25,14,01,28.10
2016,08,25,14,02,28.10
2016,08,25,14,03,28.10
2016,08,25,14,04,28.10
2016,08,25,14,05,28.10
2016,08,25,14,06,28.10
2016,08,25,14,07,28.20
2016,08,25,14,08,28.20
2016,08,25,14,09,28.20
2016,08,25,14,10,28.20
2016,08,25,14,11,28.30
2016,08,25,14,12,28.30
2016,08,25,14,13,28.30
2016,08,25,14,14,28.30
2016,08,25,14,15,28.30
2016,08,25,14,16,28.30
2016,08,25,14,17,28.30
2016,08,25,14,18,28.30
2016,08,25,14,19,28.40
2016,08,25,14,20,28.40
2016,08,25,14,21,28.40
2016,08,25,14,22,28.40
2016,08,25,14,23,28.40
2016,08,25,14,24,28.50
2016,08,25,14,25,28.60
2016,08,25,14,26,28.50
2016,08,25,14,27,28.40
2016,08,25,14,28,28.30
2016,08,25,14,29,28.30
2016,08,25,14,30,28.30
2016,08,25,14,31,28.20
2016,08,25,14,32,28.20
2016,08,25,14,33,28.20
2016,08,25,14,34,28.20
2016,08,25,14,35,28.10
2016,08,25,14,36,28.10
2016,08,25,14,37,28.10
2016,08,25,14,38,28.10
2016,08,25,14,39,28.20
2016,08,25,14,40,28.20
2016,08,25,14,41,28.20
2016,08,25,14,42,28.30
2016,08,25,14,43,28.40
2016,08,25,14,44,28.50
2016,08,25,14,45,28.60
2016,08,25,14,46,28.60
2016,08,25,14,47,28.70
2016,08,25,14,48,28.70
2016,08,25,14,49,28.70
2016,08,25,14,50,28.70
2016,08,25,14,51,28.80
2016,08,25,14,52,28.80
2016,08,25,14,53,28.90
2016,08,25,14,54,28.90
2016,08,25,14,55,28.90
2016,08,25,14,56,28.90
2016,08,25,14,57,28.90
2016,08,25,14,58,28.90
2016,08,25,14,59,28.90
2016,08,25,15,00,28.90
2016,08,25,15,01,28.90
2016,08,25,15,02,28.90
2016,08,25,15,03,28.90
2016,08,25,15,04,29.00
2016,08,25,15,05,29.10
2016,08,25,15,06,29.10
2016,08,25,15,07,29.10
2016,08,25,15,08,29.10
2016,08,25,15,09,29.10
2016,08,25,15,10,29.20
2016,08,25,15,11,29.20
2016,08,25,15,12,29.30
2016,08,25,15,13,29.40
2016,08,25,15,14,29.50
2016,08,25,15,15,29.50
2016,08,25,15,16,29.60
2016,08,25,15,17,29.60
2016,08,25,15,18,29.60
2016,08,25,15,19,29.60
2016,08,25,15,20,29.70
2016,08,25,15,21,29.60
2016,08,25,15,22,29.60
2016,08,25,15,23,29.60
2016,08,25,15,24,29.60
2016,08,25,15,25,29.60
2016,08,25,15,26,29.70
2016,08,25,15,27,29.70
2016,08,25,15,28,29.70
2016,08,25,15,29,29.70
2016,08,25,15,30,29.70
2016,08,25,15,31,29.70
2016,08,25,15,32,29.70
2016,08,25,15,33,29.70
2016,08,25,15,34,29.70
2016,08,25,15,35,29.70
2016,08,25,15,36,29.70
2016,08,25,15,37,29.70
2016,08,25,15,38,29.70
2016,08,25,15,39,29.70
2016,08,25,15,40,29.70
2016,08,25,15,41,29.80
2016,08,25,15,42,29.80
2016,08,25,15,43,29.80
2016,08,25,15,44,29.80
2016,08,25,15,45,29.90
2016,08,25,15,46,29.90
2016,08,25,15,47,29.90
2016,08,25,15,48,29.90
2016,08,25,15,49,29.90
2016,08,25,15,50,29.90
2016,08,25,15,51,30.00
2016,08,25,15,52,30.10
2016,08,25,15,53,30.10
2016,08,25,15,54,30.20
2016,08,25,15,55,30.20
2016,08,25,15,56,30.20
2016,08,25,15,57,30.30
2016,08,25,15,58,30.30
2016,08,25,15,59,30.30
2016,08,25,16,00,30.40
2016,08,25,16,01,30.40
2016,08,25,16,02,30.50
2016,08,25,16,03,30.60
2016,08,25,16,04,30.50
2016,08,25,16,05,30.40
2016,08,25,16,06,30.40
2016,08,25,16,07,30.40
2016,08,25,16,08,30.40
2016,08,25,16,09,30.40
2016,08,25,16,10,30.40
2016,08,25,16,11,30.40
2016,08,25,16,12,30.40
2016,08,25,16,13,30.40
2016,08,25,16,14,30.40
2016,08,25,16,15,30.40
2016,08,25,16,16,30.40
2016,08,25,16,17,30.40
2016,08,25,16,18,30.40
2016,08,25,16,19,30.40
2016,08,25,16,20,30.40
2016,08,25,16,21,30.40
2016,08,25,16,22,30.40
2016,08,25,16,23,30.40
2016,08,25,16,24,30.40
2016,08,25,16,25,30.40
2016,08,25,16,26,30.60
2016,08,25,16,27,30.60
2016,08,25,16,28,30.70
2016,08,25,16,29,30.70
2016,08,25,16,30,30.80
2016,08,25,16,31,30.80
2016,08,25,16,32,30.80
2016,08,25,16,33,30.80
2016,08,25,16,34,30.80
2016,08,25,16,35,30.90
2016,08,25,16,36,31.00
2016,08,25,16,37,31.00
2016,08,25,16,38,30.90
2016,08,25,16,39,30.90
2016,08,25,16,40,30.80
2016,08,25,16,41,30.80
2016,08,25,16,42,30.70
2016,08,25,16,43,30.50
2016,08,25,16,44,30.30
2016,08,25,16,45,30.10
2016,08,25,16,46,29.90
2016,08,25,16,47,29.70
2016,08,25,16,48,29.50
2016,08,25,16,49,29.30
2016,08,25,16,50,29.20
2016,08,25,16,51,29.10
2016,08,25,16,52,29.10
2016,08,25,16,53,29.10
2016,08,25,16,54,29.10
2016,08,25,16,55,29.10
2016,08,25,16,56,29.10
2016,08,25,16,57,28.90
2016,08,25,16,58,28.90
2016,08,25,16,59,28.90
2016,08,25,17,00,28.90
2016,08,25,17,01,28.90
2016,08,25,17,02,28.90
2016,08,25,17,03,28.90
2016,08,25,17,04,28.90
2016,08,25,17,05,28.90
2016,08,25,17,06,28.90
2016,08,25,17,07,29.00
2016,08,25,17,08,29.10
2016,08,25,17,09,29.10
2016,08,25,17,10,29.20
2016,08,25,17,11,29.20
2016,08,25,17,12,29.30
2016,08,25,17,13,29.30
2016,08,25,17,14,29.40
2016,08,25,17,15,29.50
2016,08,25,17,16,29.50
2016,08,25,17,17,29.60
2016,08,25,17,18,29.70
2016,08,25,17,19,29.80